Zurück zum Katalog

STARLINK-3899

AktivKommunikationVLEO
NORAD 52457·PAYLOAD·🇺🇸 United States

Gestartet May 6, 2022 von Cape Canaveral Space Force Station

Loading…

Nächste Überflüge (nächste 24 Stunden)

TLE

AktuellSource: CelesTrak SupGP

Epoche: Sep 15, 2026, 01:14 UTC

1 52457C 22049G   26258.05187500  .00742580  00000+0  23507-1 0  2580
2 52457  53.1592 295.5589 0001314  96.3531 167.0378 15.31833288    14

Verfolge STARLINK-3899 in Echtzeit mit AllMySat

Download on the App Store